Weather History for Fallon NAS, NV

Change the Weather History Date:

Monday, August 27, 2012

  Actual Average Record
Temperature  
Mean Temperature 71 °F -  
Max Temperature 91 °F 87 °F 97 °F (2001)
Min Temperature 51 °F 48 °F 37 °F (1992)
Cooling Degree Days 6    
Growing Degree Days 21 (Base 50)    
Moisture  
Dew Point 27 °F    
Average Humidity 25    
Maximum Humidity 48    
Minimum Humidity 6    
Precipitation  
Precipitation 0.00 in - - ()
Sea Level Pressure  
Sea Level Pressure 29.98 in    
Wind  
Wind Speed 3 mph (West)    
Max Wind Speed 9 mph    
Max Gust Speed -    
Visibility 10 miles    
Events      
Averages and records for this station are not official NWS values.
T = Trace of Precipitation, MM = Missing Value Source: NWS Daily Summary

Daily Weather History Graph

Daily Weather History Graph

Search for Another Location

Airport:

Trip Planner

Search our weather history database for the weather conditions in past years. The results will help you decide how hot, cold, wet, or windy it might be!

Date:

Astronomy

Aug. 27, 2012 Rise Set
Actual Time 6:19 AM PDT 7:32 PM PDT
Civil Twilight 5:51 AM PDT 8:00 PM PDT
Nautical Twilight 5:18 AM PDT 8:33 PM PDT
Astronomical Twilight 4:43 AM PDT 9:07 PM PDT
Moon 4:55 PM PDT (8/27) 2:09 AM PDT (8/27)
Length of Visible Light 14h 08m
Length of Day
13h 13m
Waxing Gibbous, 83% of the Moon is Illuminated
Aug 27
Waxing Gibbous
Aug 31
Full
Sep 8
Last Quarter
Sep 15
New
Sep 22
First Quarter

Hourly Weather History & Observations

Time (PDT) Temp. Dew Point Humidity Pressure Visibility Wind Dir Wind Speed Gust Speed Precip Events Conditions
12:56 AM 63.0 °F 28.0 °F 27% 29.94 in 10.0 mi Calm Calm - N/A   Clear
1:56 AM 61.0 °F 32.0 °F 34% 29.94 in 10.0 mi West 5.8 mph - N/A   Clear
2:56 AM 53.1 °F 28.9 °F 40% 29.96 in 10.0 mi Calm Calm - N/A   Clear
3:56 AM 54.0 °F 34.0 °F 47% 29.96 in 10.0 mi South 5.8 mph - N/A   Clear
4:56 AM 51.1 °F 32.0 °F 48% 29.96 in 10.0 mi SSE 5.8 mph - N/A   Clear
5:56 AM 53.1 °F 32.0 °F 45% 29.98 in 10.0 mi SSW 4.6 mph - N/A   Clear
6:18 AM 53.6 °F 32.0 °F 44% 30.08 in 10.0 mi SSW 3.5 mph - N/A   Partly Cloudy
6:56 AM 53.1 °F 32.0 °F 45% 30.00 in 10.0 mi Calm Calm - N/A   Clear
7:56 AM 62.1 °F 35.1 °F 37% 30.01 in 10.0 mi South 3.5 mph - N/A   Clear
8:56 AM 68.0 °F 39.0 °F 35% 30.02 in 10.0 mi West 4.6 mph - N/A   Clear
9:56 AM 73.0 °F 37.0 °F 27% 30.03 in 10.0 mi Calm Calm - N/A   Clear
10:56 AM 77.0 °F 30.9 °F 19% 30.03 in 10.0 mi Calm Calm - N/A   Clear
11:56 AM 81.0 °F 30.0 °F 16% 30.02 in 10.0 mi Calm Calm - N/A   Clear
12:56 PM 82.9 °F 28.0 °F 14% 30.00 in 10.0 mi Variable 3.5 mph - N/A   Clear
1:56 PM 84.9 °F 23.0 °F 10% 29.99 in 10.0 mi SSW 4.6 mph - N/A   Clear
2:56 PM 88.0 °F 23.0 °F 9% 29.97 in 10.0 mi NW 9.2 mph - N/A   Clear
3:56 PM 88.0 °F 21.0 °F 9% 29.96 in 10.0 mi Variable 4.6 mph - N/A   Clear
4:56 PM 90.0 °F 19.0 °F 7% 29.94 in 10.0 mi North 8.1 mph - N/A   Clear
5:56 PM 91.0 °F 16.0 °F 6% 29.93 in 10.0 mi North 5.8 mph - N/A   Clear
6:56 PM 87.1 °F 19.0 °F 8% 29.92 in 10.0 mi NE 5.8 mph - N/A   Clear
7:56 PM 79.0 °F 19.0 °F 11% 29.94 in 10.0 mi NNE 3.5 mph - N/A   Clear
8:56 PM 73.0 °F 21.0 °F 14% 29.94 in 10.0 mi NE 4.6 mph - N/A   Clear
9:56 PM 75.0 °F 23.0 °F 14% 29.96 in 10.0 mi WNW 9.2 mph - N/A   Clear
10:56 PM 66.0 °F 25.0 °F 21% 29.98 in 10.0 mi WNW 3.5 mph - N/A   Clear
11:56 PM 59.0 °F 26.1 °F 28% 29.99 in 10.0 mi South 6.9 mph - N/A   Clear